Regional Weather Roundup
Issued by NWS Cleveland, OH

Home | Current Version | Previous Version | Graphics & Text | Print | Product List | Glossary On
Versions: 1 2 3 4 5 6 7 8 9 10 11 12 13 14 15 16 17 18 19 20 21 22 23 24 25 26 27 28 29 30 31 32 33 34 35 36 37 38 39 40 41 42 43 44 45 46 47 48 49 50
000
ASUS41 KCLE 280910
RWRCLE
OHIO REGIONAL WEATHER ROUNDUP
NATIONAL WEATHER SERVICE CLEVELAND, OH
500 AM EDT MON JUL 28 2014

NOTE: "FAIR" INDICATES FEW OR NO CLOUDS BELOW 12,000 FEET WITH NO
SIGNIFICANT WEATHER AND/OR OBSTRUCTIONS TO VISIBILITY.

OHZ001>008-015>018-024>027-034-035-043-044-281000-
   NORTHWEST OHIO

CITY           SKY/WX    TMP DP  RH WIND       PRES   REMARKS
DEFIANCE       MOCLDY    62  58  86 VRB3      29.80R
FINDLAY        CLOUDY    62  59  90 W9        29.77R
TOLEDO EXPRESS CLOUDY    61  58  90 W8        29.75R
TOLEDO EXEC    CLOUDY    63  57  81 NW15      29.75R
LIMA           CLOUDY    62  59  90 W9        29.80R
$$

OHZ009>014-019>023-028>033-038-089-281000-
   NORTHEAST OHIO

CITY           SKY/WX    TMP DP  RH WIND       PRES   REMARKS
CLE-HOPKINS    CLOUDY    62  60  93 W7        29.70S
CLE-LAKEFRONT  CLOUDY    66  60  81 NW17      29.67R
CUY CO. ARPT   NOT AVBL
LORAIN-ELYRIA  MOCLDY    65  60  84 W8        29.71S
ASHTABULA      CLOUDY    62  60  93 W13       29.65S
AKRON-CANTON   LGT RAIN  63  59  87 NW12      29.70R
WOOSTER        CLEAR     61  58  90 NW10      29.72S
MANSFIELD      CLOUDY    61  61 100 W6        29.75R
YOUNGSTOWN     CLOUDY    61  59  93 W8        29.66S
$$

OHZ042-051>053-060>062-070>072-077>081-281000-
  SOUTHWEST OHIO

CITY           SKY/WX    TMP DP  RH WIND       PRES   REMARKS
CINC-COVINGTON PTCLDY    63  58  83 W10       29.85R
CINC-LUNKEN    CLEAR     65  59  81 W8        29.84R
HAMILTON       CLEAR     62  60  93 VRB5      29.84R
DAYTON         CLOUDY    64  58  80 W10       29.84R
WRIGHT-PAT AFB CLOUDY    63  58  83 W9        29.83R
DAYTON GENERAL MOCLDY    64  58  80 NW10      29.82R
WILMINGTON     CLEAR     62  57  83 W8        29.81R
$$

OHZ036-037-039>041-045>050-054>059-063>069-073>076-082>088-281000-
  CENTRAL AND SOUTHEAST OHIO

CITY           SKY/WX    TMP DP  RH WIND       PRES   REMARKS
COLUMBUS       PTCLDY    64  58  80 W9        29.77R
OSU AIRPORT    MOCLDY    62  58  86 W8        29.77R
BOLTON FIELD   CLEAR     62  59  90 W8        29.79R
RICKENBACK AFB CLEAR     62  56  80 W7        29.78R
NEWARK         CLEAR     64  60  87 W8        29.75R
MARION         CLOUDY    62  59  90 NW13      29.77R
LANCASTER      CLEAR     63  59  87 W8        29.77R
ZANESVILLE     CLOUDY    65  61  87 W8        29.74R
NEW PHILLY     MOCLDY    63  60  90 W7        29.72R
$$


USA.gov is the U.S. government's official web portal to all federal, state and local government web resources and services.